Simultaneous Nadir Overpasses (SNOs) Predictions

Prediction of SNOs between GOES-15 and METOP-C Satellite Orbit:

Table of predicted SNOs for the next 14.0 days since TLE Epoch: 10/1/2022
Index Date Time (GOES-15) GOES-15 Lat,Lon METOP-C Lat,Lon Distance(km) Time Diff (sec)
1 10/01/2022 18:14:57 -0.29,-128.15 0.43,-131.50 380.81 80
2 10/02/2022 17:56:55 -0.27,-128.17 -0.62,-126.49 191.29 80
3 10/04/2022 06:15:55 0.29,-128.18 -0.37,-131.09 331.96 80
4 10/05/2022 05:52:35 0.27,-128.20 0.75,-126.10 239.14 80
5 10/06/2022 18:11:24 -0.29,-128.24 0.25,-130.66 275.74 80
6 10/07/2022 17:53:24 -0.28,-128.26 -0.87,-125.66 296.08 80
7 10/09/2022 06:12:23 0.29,-128.27 -0.17,-130.26 226.41 80
8 10/10/2022 05:49:03 0.28,-128.29 0.96,-125.26 344.60 80
9 10/11/2022 18:07:52 -0.29,-128.32 0.03,-129.82 171.21 80
10 10/12/2022 17:49:51 -0.28,-128.33 -1.09,-124.83 400.23 80
11 10/14/2022 06:08:51 0.29,-128.35 0.07,-129.42 122.20 80
